This is the latest recevied weather packets stored in our database for station/object OH7GGX-14. If no packets are shown the sender has not sent any weather packets the latest 10 day(s).
| Time | Temp. | Humidity | Pressure | Rain* | Wind** | Luminosity | Snow |
|---|---|---|---|---|---|---|---|
| 1788086814 | 18.89° C | 85% | 1013.6 hPa | 0 mm | - | - | - |
| 1788086214 | 18.89° C | 88% | 1013.7 hPa | 0 mm | - | - | - |
| 1788085614 | 18.33° C | 86% | 1013.7 hPa | 0 mm | - | - | - |
| 1788085014 | 18.33° C | 86% | 1013.8 hPa | 0 mm | - | - | - |
| 1788084414 | 18.33° C | 89% | 1013.8 hPa | 0 mm | - | - | - |
| 1788083814 | 18.33° C | 87% | 1013.8 hPa | 0 mm | - | - | - |
| 1788083214 | 18.33° C | 89% | 1013.7 hPa | 0 mm | - | - | - |
| 1788082614 | 18.33° C | 90% | 1013.7 hPa | 0 mm | - | - | - |
| 1788082014 | 18.33° C | 92% | 1013.9 hPa | 0 mm | - | - | - |
| 1788081414 | 18.33° C | 93% | 1013.9 hPa | 0 mm | - | - | - |
| 1788080814 | 17.78° C | 95% | 1013.9 hPa | 0 mm | - | - | - |
| 1788080214 | 17.78° C | 97% | 1014.1 hPa | 0 mm | - | - | - |
| 1788079614 | 17.78° C | 95% | 1014.2 hPa | 0 mm | - | - | - |
| 1788079014 | 17.78° C | 99% | 1014.1 hPa | 0 mm | - | - | - |
| 1788078414 | 17.22° C | 99% | 1014.1 hPa | 0 mm | - | - | - |
| 1788077814 | 17.22° C | 99% | 1014.3 hPa | 0 mm | - | - | - |
| 1788077214 | 17.22° C | 99% | 1014.5 hPa | 0 mm | - | - | - |
| 1788076614 | 17.22° C | 99% | 1014.6 hPa | 0 mm | - | - | - |
| 1788076014 | 16.67° C | 99% | 1014.7 hPa | 0 mm | - | - | - |
| 1788075414 | 16.67° C | 99% | 1014.7 hPa | 0 mm | - | - | - |
| 1788074814 | 16.11° C | 99% | 1014.7 hPa | 0 mm | - | - | - |
| 1788074214 | 16.11° C | 99% | 1014.8 hPa | 0 mm | - | - | - |
| 1788073614 | 16.11° C | 99% | 1014.9 hPa | 0 mm | - | - | - |
| 1788073014 | 15.56° C | 99% | 1014.9 hPa | 0 mm | - | - | - |
| 1788072414 | 15.56° C | 99% | 1015 hPa | 0 mm | - | - | - |
* Rain latest hour (hover to see other rain measurements)
** Current wind speed in m/s (hover to see current wind gust speed)